Location: Christianberg
(48.9086°N, 14.0209°E)
Time: 22:49:13
(UTC+00:00)

Meteor 1-26 Rocket - Pass Details

Date: 20 June 2021
Orbit: 807 x 928 km, 81.3° (Epoch: 04 August)

Event Time Altitude Azimuth Distance (km) Brightness Sun altitude
Rises 01:47:07 0° 345° (NNW) 3,486 8.0 -9.2°
Reaches altitude 10° 01:49:34 10° 342° (NNW) 2,561 7.2 -8.9°
Maximum altitude 01:55:18 60° 264° (W) 1,036 4.5 -8.4°
Drops below altitude 10° 02:01:08 10° 186° (S) 2,607 6.3 -7.7°
Enters shadow 02:03:15 - 183° (S) 3,404 6.9 -7.5°
